Weather History for Lancaster, OH

Change the Weather History Date:

Saturday, December 8, 2012

  Actual Average Record
Temperature  
Mean Temperature 50 °F -  
Max Temperature 55 °F 42 °F 66 °F (1952)
Min Temperature 44 °F 26 °F 2 °F (1977)
Degree Days  
Heating Degree Days 16    
Moisture  
Dew Point 49 °F    
Average Humidity 89    
Maximum Humidity 96    
Minimum Humidity 82    
Precipitation  
Precipitation 0.11 in - - ()
Sea Level Pressure  
Sea Level Pressure 29.92 in    
Wind  
Wind Speed 6 mph (West)    
Max Wind Speed 16 mph    
Max Gust Speed -    
Visibility 6 miles    
Events Rain    
Averages and records for this station are not official NWS values.
T = Trace of Precipitation, MM = Missing Value Source: NWS Daily Summary

Daily Weather History Graph

Daily Weather History Graph

Search for Another Location

Airport:

Trip Planner

Search our weather history database for the weather conditions in past years. The results will help you decide how hot, cold, wet, or windy it might be!

Date:

Astronomy

Dec. 08, 2012 Rise Set
Actual Time 7:39 AM EST 5:05 PM EST
Civil Twilight 7:09 AM EST 5:36 PM EST
Nautical Twilight 6:35 AM EST 6:09 PM EST
Astronomical Twilight 6:02 AM EST 6:42 PM EST
Moon 2:03 AM EST (12/8) 1:34 PM EST (12/8)
Length of Visible Light 10h 26m
Length of Day
9h 26m
Waning Crescent, 28% of the Moon is Illuminated
Dec 8
Waning Crescent
Dec 13
New
Dec 20
First Quarter
Dec 28
Full
Jan 4
Last Quarter

Hourly Weather History & Observations

Time (EST) Temp. Windchill Dew Point Humidity Pressure Visibility Wind Dir Wind Speed Gust Speed Precip Events Conditions
12:49 AM 53.6 °F - 51.8 °F 94% 29.85 in 9.0 mi SW 6.9 mph - N/A   Overcast
12:53 AM 53.1 °F - 51.1 °F 93% 29.85 in 9.0 mi SSW 6.9 mph - N/A   Overcast
1:23 AM 53.6 °F - 51.8 °F 94% 29.84 in 8.0 mi SW 6.9 mph - N/A   Overcast
1:32 AM 53.6 °F - 51.8 °F 94% 29.84 in 8.0 mi SW 8.1 mph - N/A   Overcast
1:53 AM 54.0 °F - 51.1 °F 90% 29.84 in 8.0 mi WSW 6.9 mph - N/A   Overcast
2:53 AM 54.0 °F - 50.0 °F 86% 29.85 in 9.0 mi WSW 8.1 mph - N/A   Overcast
3:53 AM 52.0 °F - 48.9 °F 89% 29.86 in 7.0 mi WSW 5.8 mph - N/A   Mostly Cloudy
4:53 AM 52.0 °F - 48.9 °F 89% 29.86 in 6.0 mi SW 4.6 mph - N/A   Overcast
5:53 AM 51.1 °F - 48.9 °F 92% 29.86 in 5.0 mi SW 3.5 mph - N/A   Mostly Cloudy
6:16 AM 51.8 °F - 48.2 °F 88% 29.86 in 5.0 mi Calm Calm - N/A   Mostly Cloudy
6:53 AM 50.0 °F - 46.9 °F 89% 29.86 in 5.0 mi South 3.5 mph - N/A   Overcast
7:00 AM 50.0 °F - 46.4 °F 87% 29.86 in 5.0 mi South 3.5 mph - N/A   Overcast
7:21 AM 51.8 °F - 48.2 °F 88% 29.87 in 5.0 mi WSW 4.6 mph - N/A   Overcast
7:53 AM 52.0 °F - 48.9 °F 89% 29.87 in 5.0 mi Calm Calm - 0.00 in   Overcast
8:41 AM 53.6 °F - 50.0 °F 88% 29.88 in 2.5 mi SW 3.5 mph - 0.00 in Rain Light Rain
8:53 AM 53.1 °F - 50.0 °F 89% 29.88 in 2.5 mi SSW 4.6 mph - 0.00 in Rain Light Rain
9:19 AM 53.6 °F - 51.8 °F 94% 29.88 in 2.0 mi SSW 5.8 mph - 0.01 in Rain Light Rain
9:40 AM 53.6 °F - 51.8 °F 94% 29.89 in 2.5 mi SW 3.5 mph - 0.02 in Rain Light Rain
9:49 AM 53.6 °F - 51.8 °F 94% 29.89 in 2.5 mi SSW 3.5 mph - 0.03 in Rain Light Rain
9:53 AM 53.1 °F - 52.0 °F 96% 29.89 in 2.0 mi Calm Calm - 0.03 in Rain Light Rain
10:11 AM 53.6 °F - 51.8 °F 94% 29.89 in 2.0 mi SSW 3.5 mph - 0.00 in Rain Light Rain
10:21 AM 53.6 °F - 51.8 °F 94% 29.89 in 2.0 mi SW 4.6 mph - 0.01 in Rain Light Rain
10:27 AM 53.6 °F - 51.8 °F 94% 29.90 in 1.5 mi Variable 3.5 mph - 0.02 in Rain Rain
10:41 AM 53.6 °F - 51.8 °F 94% 29.90 in 2.5 mi SW 3.5 mph - 0.03 in Rain Light Rain
10:46 AM 53.6 °F - 51.8 °F 94% 29.90 in 2.0 mi SW 4.6 mph - 0.03 in Rain Light Rain
10:53 AM 54.0 °F - 52.0 °F 93% 29.90 in 1.8 mi WSW 6.9 mph - 0.04 in Rain Rain
11:01 AM 55.4 °F - 51.8 °F 88% 29.89 in 2.5 mi SW 5.8 mph - 0.01 in Rain Light Rain
11:05 AM 55.4 °F - 51.8 °F 88% 29.89 in 2.5 mi WSW 5.8 mph - 0.01 in Rain Light Rain
11:24 AM 55.4 °F - 51.8 °F 88% 29.89 in 4.0 mi West 6.9 mph - 0.02 in Rain Light Rain
11:42 AM 55.4 °F - 51.8 °F 88% 29.88 in 3.0 mi WNW 3.5 mph - 0.03 in Rain Light Rain
11:53 AM 55.0 °F - 52.0 °F 89% 29.88 in 4.0 mi West 4.6 mph - 0.03 in Rain Light Rain
12:06 PM 55.4 °F - 51.8 °F 88% 29.87 in 5.0 mi West 4.6 mph - 0.00 in   Overcast
12:11 PM 53.6 °F - 51.8 °F 94% 29.87 in 4.0 mi West 4.6 mph - 0.01 in Rain Light Rain
12:19 PM 53.6 °F - 51.8 °F 94% 29.87 in 2.5 mi Calm Calm - 0.01 in Rain Light Rain
12:26 PM 55.4 °F - 51.8 °F 88% 29.87 in 5.0 mi West 4.6 mph - 0.01 in   Overcast
12:39 PM 55.4 °F - 51.8 °F 88% 29.87 in 5.0 mi West 4.6 mph - 0.01 in   Overcast
12:46 PM 55.4 °F - 51.8 °F 88% 29.87 in 5.0 mi WSW 5.8 mph - 0.01 in   Overcast
12:53 PM 55.0 °F - 51.1 °F 86% 29.87 in 5.0 mi West 5.8 mph - 0.01 in   Overcast
1:05 PM 55.4 °F - 51.8 °F 88% 29.86 in 5.0 mi SW 6.9 mph - N/A   Overcast
1:53 PM 54.0 °F - 51.1 °F 90% 29.88 in 5.0 mi WNW 4.6 mph - N/A   Overcast
2:13 PM 53.6 °F - 50.0 °F 88% 29.88 in 6.0 mi WNW 4.6 mph - N/A   Overcast
2:53 PM 54.0 °F - 48.9 °F 83% 29.90 in 6.0 mi NW 6.9 mph - N/A   Haze
3:23 PM 53.6 °F - 48.2 °F 82% 29.91 in 6.0 mi NW 5.8 mph - N/A   Haze
3:53 PM 53.1 °F - 48.9 °F 86% 29.92 in 7.0 mi NW 5.8 mph - N/A   Overcast
4:15 PM 53.6 °F - 48.2 °F 82% 29.93 in 7.0 mi NW 5.8 mph - N/A   Overcast
4:50 PM 51.8 °F - 46.4 °F 82% 29.95 in 6.0 mi NNW 5.8 mph - N/A   Haze
4:53 PM 52.0 °F - 46.9 °F 83% 29.95 in 6.0 mi NNW 5.8 mph - N/A   Haze
5:53 PM 51.1 °F - 46.0 °F 83% 29.97 in 7.0 mi North 6.9 mph - N/A   Overcast
6:23 PM 51.8 °F - 46.4 °F 82% 29.98 in 7.0 mi North 5.8 mph - N/A   Overcast
6:31 PM 50.0 °F - 46.4 °F 87% 29.99 in 8.0 mi North 6.9 mph - N/A   Overcast
6:53 PM 50.0 °F - 46.0 °F 86% 30.01 in 8.0 mi North 3.5 mph - N/A   Overcast
7:09 PM 50.0 °F - 44.6 °F 82% 30.01 in 8.0 mi North 6.9 mph - N/A   Overcast
7:25 PM 48.2 °F - 44.6 °F 87% 30.02 in 7.0 mi North 8.1 mph - N/A   Overcast
7:53 PM 48.0 °F - 45.0 °F 89% 30.03 in 5.0 mi NNE 8.1 mph - N/A   Overcast
8:08 PM 48.2 °F - 44.6 °F 87% 30.03 in 7.0 mi North 6.9 mph - N/A   Overcast
8:53 PM 46.9 °F - 44.1 °F 90% 30.04 in 7.0 mi NNE 8.1 mph - N/A   Overcast
9:05 PM 46.4 °F 42.9 °F 44.6 °F 93% 30.04 in 7.0 mi NNE 6.9 mph - N/A   Overcast
9:43 PM 46.4 °F 43.5 °F 42.8 °F 87% 30.04 in 8.0 mi NE 5.8 mph - N/A   Overcast
9:53 PM 46.9 °F - 43.0 °F 86% 30.05 in 8.0 mi NE 5.8 mph - N/A   Overcast
10:14 PM 46.4 °F 39.8 °F 42.8 °F 87% 30.05 in 8.0 mi NE 16.1 mph - N/A   Overcast
10:30 PM 44.6 °F 39.2 °F 42.8 °F 93% 30.05 in 8.0 mi ENE 10.4 mph - N/A   Overcast
10:46 PM 44.6 °F 38.8 °F 41.0 °F 87% 30.05 in 10.0 mi ENE 11.5 mph - N/A   Overcast
10:53 PM 45.0 °F 39.3 °F 39.9 °F 82% 30.06 in 10.0 mi ENE 11.5 mph - N/A   Overcast
11:53 PM 44.1 °F 38.1 °F 39.9 °F 85% 30.06 in 10.0 mi ENE 11.5 mph - N/A   Overcast